World > North America > United States > New York > Alplaus  

Alplaus, NY Hourly Weather Updates

Feedback E-mail the Weather

Quick Clicks

Alplaus, NY Weather Maps

°F °C°F °C
Alplaus Weather Map
UTC Time: 4/24/2024, 19:07
Your Time:

Alplaus, NY Regional Weather

Expires:202404241900;;303797
ASUS41 KALY 241810
RWRALY

NEW YORK STATE HOURLY WEATHER ROUNDUP
NATIONAL WEATHER SERVICE ALBANY NY
200 PM EDT WED APR 24 2024

NOTE: "FAIR" INDICATES FEW OR NO CLOUDS BELOW 12,000 FEET WITH NO
SIGNIFICANT WEATHER AND/OR NO OBSTRUCTIONS TO VISIBILITY.


NYZ032-033-038>043-046>054-057>066-NYZ062>081-082-084-241900-
EAST

  
CITY           SKY/WX    TMP DP  RH WIND       PRES   REMARKS
ALBANY         PTSUNNY   59  43  55 W18G29    29.85R                  
GLENS FALLS    CLOUDY    55  46  71 NW7       29.82R                  
POUGHKEEPSIE   PTSUNNY   65  43  44 W15G28    29.82R                  
NEWBURGH       PTSUNNY   64  39  39 NW21G32   29.82R                  
MONTGOMERY     PTSUNNY   66  38  35 NW16G29   29.82R                  
WHITE PLAINS   MOSUNNY   65  38  36 NW13      29.82S                  
ISLIP          MOSUNNY   63  45  51 SW10      29.84R                  
NEW YORK CITY  PTSUNNY   68  37  32 W12G21    29.82S                  
CENTRAL PARK   PTSUNNY   73  37  27 VRB6      29.85S                  
$$


SKY/WX - Weather  TMP - Temperature  DP - Dew Point  RH - Humidity
WIND - Wind Direction/Speed PRES - Barometric Pressure VSB - Visibility
WCI - Wind Chill Index E13G22 Wind - East Wind 13 mph/Gusts of 22 mph

Trending Headlines

Trending Entertainment Headlines

Alplaus Radar Loop

Use the map search tool if you want to place a location marker on the radar map...

Alplaus Quick Facts

National Two Day Weather Forecast


E-mail the Alplaus Weather Forecast

Voice your opinion or tell us about page issues...